Location: Newark
(25.6108°S, 54.5803°W)
Time: 12:57:58
(UTC+00:00)

Explorer 11/Cluster Stage 4 - All Passes

Search period start: 30 October 2020 00:00
Search period end: 09 November 2020 00:00
Orbit: 467 x 1258 km, 28.8° (Epoch: 29 October)

Date Brightness Start Highest point End Pass type
(mag) Time Alt. Az. Time Alt. Az. Time Alt. Az.
30 Oct - 00:39:01 10° NNW 00:42:30 25° NNE 00:45:40 10° E night (unlit)
30 Oct - 02:26:47 10° WNW 02:30:34 87° SSW 02:34:14 10° ESE night (unlit)
30 Oct - 04:15:19 10° WSW 04:18:52 50° S 04:22:45 10° ESE night (unlit)
30 Oct - 06:03:23 10° WSW 06:07:17 81° SSE 06:11:56 10° E visible
30 Oct - 07:51:31 10° W 07:55:38 36° NNW 08:00:38 10° NE visible
30 Oct - 09:42:20 10° NW 09:44:12 12° NNW 09:46:11 10° N daylight
31 Oct - 00:27:51 10° NW 00:31:46 32° NNE 00:35:13 10° E visible
31 Oct - 02:16:03 10° W 02:19:54 77° SSW 02:23:32 10° ESE night (unlit)
31 Oct - 04:04:40 10° WSW 04:08:14 50° S 04:11:59 10° ESE night (unlit)
31 Oct - 05:52:45 10° WSW 05:56:35 89° N 06:01:02 10° ENE visible
31 Oct - 07:41:04 10° W 07:44:51 29° NNW 07:49:21 10° NE visible
31 Oct - 22:30:55 10° N 22:32:42 12° NNE 22:34:25 10° NE visible
01 Nov - 00:16:44 10° NW 00:21:02 40° NNE 00:24:43 10° E visible
01 Nov - 02:05:17 10° W 02:09:14 68° S 02:12:52 10° ESE night (unlit)
01 Nov - 03:54:01 10° WSW 03:57:35 51° S 04:01:16 10° E night (unlit)
01 Nov - 05:42:09 10° WSW 05:45:52 78° NNW 05:50:08 10° ENE visible
01 Nov - 07:30:42 10° WNW 07:34:05 23° NNW 07:37:59 10° NNE visible
01 Nov - 22:18:43 10° NNW 22:21:55 16° NNE 22:24:47 10° ENE visible
02 Nov - 00:05:38 10° NW 00:10:17 50° NNE 00:14:11 10° E visible
02 Nov - 01:54:30 10° W 01:58:33 62° S 02:02:13 10° ESE night (unlit)
02 Nov - 03:43:19 10° WSW 03:46:57 53° S 03:50:34 10° E night (unlit)
02 Nov - 05:31:31 10° W 05:35:10 65° NNW 05:39:15 10° ENE night (unlit)
02 Nov - 07:20:28 10° WNW 07:23:19 18° NNW 07:26:31 10° NNE visible
02 Nov - 22:06:57 10° NNW 22:11:07 20° NNE 22:14:43 10° ENE daylight
02 Nov - 23:54:34 10° WNW 23:59:33 61° NNE 00:03:37 10° E visible
03 Nov - 01:43:41 10° W 01:47:53 58° S 01:51:34 10° ESE night (unlit)
03 Nov - 03:32:36 10° WSW 03:36:17 57° S 03:39:53 10° E night (unlit)
03 Nov - 05:20:53 10° W 05:24:28 53° NNW 05:28:20 10° ENE night (unlit)
03 Nov - 07:10:27 10° WNW 07:12:33 14° NNW 07:14:50 10° N visible
03 Nov - 21:55:23 10° NNW 22:00:18 25° NNE 22:04:26 10° E daylight
03 Nov - 23:43:31 10° WNW 23:48:47 72° NNE 23:53:02 10° E visible
04 Nov - 01:32:51 10° W 01:37:12 56° S 01:40:57 10° ESE visible
04 Nov - 03:21:50 10° WSW 03:25:38 63° S 03:29:14 10° E night (unlit)
04 Nov - 05:10:17 10° W 05:13:45 42° NNW 05:17:24 10° NE night (unlit)
04 Nov - 07:01:19 10° NNW 07:01:48 10° NNW 07:02:16 10° NNW visible
04 Nov - 21:43:55 10° NW 21:49:27 31° NNE 21:54:03 10° E daylight
04 Nov - 23:32:28 10° WNW 23:38:01 82° NNE 23:42:26 10° ESE visible
05 Nov - 01:22:00 10° W 01:26:32 55° S 01:30:20 10° ESE visible
05 Nov - 03:11:03 10° WSW 03:14:58 70° S 03:18:36 10° E night (unlit)
05 Nov - 04:59:41 10° W 05:03:02 34° NNW 05:06:28 10° NE night (unlit)
05 Nov - 19:46:39 10° N 19:49:46 13° NNE 19:52:41 10° NE daylight
05 Nov - 21:32:30 10° NW 21:38:36 38° NNE 21:43:34 10° E daylight
05 Nov - 23:21:25 10° WNW 23:27:14 89° S 23:31:50 10° ESE visible
06 Nov - 01:11:07 10° W 01:15:50 55° S 01:19:45 10° ESE visible
06 Nov - 03:00:14 10° WSW 03:04:18 79° SSE 03:07:57 10° E night (unlit)
06 Nov - 04:49:07 10° W 04:52:18 27° NNW 04:55:28 10° NE night (unlit)
06 Nov - 19:34:23 10° N 19:38:51 17° NNE 19:42:54 10° ENE daylight
06 Nov - 21:21:09 10° NW 21:27:43 45° NNE 21:33:02 10° E daylight
06 Nov - 23:10:24 10° W 23:16:26 82° SSW 23:21:12 10° ESE visible
07 Nov - 01:00:12 10° W 01:05:08 56° S 01:09:11 10° E visible
07 Nov - 02:49:23 10° WSW 02:53:36 90° N 02:57:19 10° ENE night (unlit)
07 Nov - 04:38:35 10° W 04:41:33 22° NNW 04:44:27 10° NNE night (unlit)
07 Nov - 19:22:29 10° NNW 19:27:53 21° NNE 19:32:46 10° ENE daylight
07 Nov - 21:09:51 10° NW 21:16:48 53° NNE 21:22:26 10° E daylight
07 Nov - 22:59:21 10° W 23:05:38 76° SSW 23:10:35 10° ESE visible
08 Nov - 00:49:16 10° WSW 00:54:26 58° S 00:58:36 10° E visible
08 Nov - 02:38:32 10° WSW 02:42:54 78° NNW 02:46:39 10° ENE night (unlit)
08 Nov - 04:28:07 10° WNW 04:30:46 18° NNW 04:33:20 10° NNE night (unlit)
08 Nov - 19:10:45 10° NNW 19:16:54 25° NNE 19:22:24 10° E daylight
08 Nov - 20:58:36 10° WNW 21:05:53 61° NNE 21:11:47 10° E daylight
08 Nov - 22:48:18 10° W 22:54:49 72° S 22:59:57 10° ESE visible
